Chattanooga, TN

6:23 PM EDT on July 21, 2017 (GMT -0400)
Lovell

Weather History for KCHA - April, 2013

Change the Weather History Date:

Sunday, April 7, 2013

  Actual Average Record
Temperature  
Mean Temperature 61 °F 58 °F  
Max Temperature 76 °F 71 °F 86 °F (1893)
Min Temperature 46 °F 46 °F 27 °F (2007)
Degree Days  
Heating Degree Days 4 8  
Month to date heating degree days 78 59  
Since 1 July heating degree days 2945 3085  
Cooling Degree Days 0 1  
Month to date cooling degree days 0 7  
Year to date cooling degree days 5 14  
Growing Degree Days 10 (Base 50)    
Moisture  
Dew Point 45 °F    
Average Humidity 62    
Maximum Humidity 93    
Minimum Humidity 31    
Precipitation  
Precipitation 0.00 in 0.14 in 3.29 in (1918)
Month to date precipitation 1.31 0.98  
Year to date precipitation 19.70 15.71  
Snow  
Snow 0.00 in 0.00 in - ()
Month to date snowfall 0.0 0.0  
Since 1 July snowfall 0.3 3.8  
Snow Depth 0.00 in    
Sea Level Pressure  
Sea Level Pressure 30.09 in    
Wind  
Wind Speed 5 mph (SSE)    
Max Wind Speed 17 mph    
Max Gust Speed 22 mph    
Visibility 10 miles    
Events      
T = Trace of Precipitation, MM = Missing Value Source: NWS Daily Summary

Daily Weather History Graph

Daily Weather History Graph

Search for Another Location

Airport or City:

Trip Planner

Search our weather history database for the weather conditions in past years. The results will help you decide how hot, cold, wet, or windy it might be!

Date:

Astronomy

Apr. 07, 2013 Rise Set
Actual Time 7:19 AM EDT 8:07 PM EDT
Civil Twilight 6:53 AM EDT 8:32 PM EDT
Nautical Twilight 6:23 AM EDT 9:03 PM EDT
Astronomical Twilight 5:51 AM EDT 9:34 PM EDT
Moon 5:30 AM EDT (4/7) 5:43 PM EDT (4/7)
Length of Visible Light 13h 39m
Length of Day
12h 48m
Waning Crescent, 8% of the Moon is Illuminated
Apr 7
Waning Crescent
Apr 10
New
Apr 18
First Quarter
Apr 25
Full
May 2
Last Quarter

Hourly Weather History & Observations

Time (EDT) Temp. Dew Point Humidity Pressure Visibility Wind Dir Wind Speed Gust Speed Precip Events Conditions
12:53 AM 54.0 °F 45.0 °F 72% 30.10 in 10.0 mi Calm Calm - N/A   Clear
1:53 AM 53.1 °F 42.1 °F 66% 30.10 in 10.0 mi South 3.5 mph - N/A   Clear
2:53 AM 53.1 °F 41.0 °F 64% 30.09 in 10.0 mi SSE 3.5 mph - N/A   Clear
3:53 AM 51.1 °F 43.0 °F 74% 30.08 in 10.0 mi Calm Calm - N/A   Clear
4:53 AM 46.9 °F 44.1 °F 90% 30.09 in 10.0 mi Calm Calm - N/A   Clear
5:53 AM 50.0 °F 43.0 °F 77% 30.11 in 10.0 mi South 3.5 mph - N/A   Scattered Clouds
6:53 AM 50.0 °F 43.0 °F 77% 30.12 in 10.0 mi Calm Calm - N/A   Mostly Cloudy
7:53 AM 48.9 °F 44.1 °F 83% 30.14 in 10.0 mi Calm Calm - N/A   Mostly Cloudy
8:53 AM 52.0 °F 46.9 °F 83% 30.16 in 10.0 mi Calm Calm - N/A   Mostly Cloudy
9:53 AM 59.0 °F 44.1 °F 58% 30.16 in 10.0 mi SSE 8.1 mph - N/A   Mostly Cloudy
10:53 AM 62.1 °F 46.0 °F 56% 30.17 in 10.0 mi SSE 4.6 mph - N/A   Mostly Cloudy
11:53 AM 66.9 °F 46.9 °F 49% 30.16 in 10.0 mi SSE 8.1 mph - N/A   Mostly Cloudy
12:53 PM 69.1 °F 45.0 °F 42% 30.13 in 10.0 mi South 11.5 mph - N/A   Mostly Cloudy
1:53 PM 72.0 °F 45.0 °F 38% 30.09 in 10.0 mi SSE 10.4 mph 17.3 mph N/A   Mostly Cloudy
2:53 PM 73.0 °F 44.1 °F 35% 30.07 in 10.0 mi SSE 10.4 mph 18.4 mph N/A   Mostly Cloudy
3:53 PM 73.9 °F 43.0 °F 33% 30.05 in 10.0 mi South 11.5 mph 18.4 mph N/A   Mostly Cloudy
4:53 PM 75.0 °F 42.1 °F 31% 30.04 in 10.0 mi South 12.7 mph 19.6 mph N/A   Mostly Cloudy
5:53 PM 75.0 °F 44.1 °F 33% 30.04 in 10.0 mi South 6.9 mph - N/A   Mostly Cloudy
6:53 PM 73.0 °F 45.0 °F 37% 30.04 in 10.0 mi SSW 10.4 mph - N/A   Mostly Cloudy
7:53 PM 72.0 °F 45.0 °F 38% 30.03 in 10.0 mi SSE 4.6 mph - N/A   Mostly Cloudy
8:53 PM 69.1 °F 46.9 °F 45% 30.03 in 10.0 mi SE 3.5 mph - N/A   Mostly Cloudy
9:53 PM 66.0 °F 48.0 °F 52% 30.03 in 10.0 mi Calm Calm - N/A   Scattered Clouds
10:53 PM 61.0 °F 50.0 °F 67% 30.05 in 10.0 mi Calm Calm - N/A   Scattered Clouds
11:53 PM 60.1 °F 48.9 °F 67% 30.05 in 10.0 mi Calm Calm - N/A   Scattered Clouds